Location: Aufkirchen
(47.9603°N, 11.3653°E)
Time: 17:28:14
(UTC+01:00)

Transit 2A - Pass Details

Date: 26 November 2020
Orbit: 599 x 960 km, 66.7° (Epoch: 26 January)

Event Time Altitude Azimuth Distance (km) Brightness Sun altitude
Rises 18:05:26 0° 203° (SSW) 3,627 10.0 -16.1°
Reaches altitude 10° 18:08:02 10° 201° (SSW) 2,677 9.3 -16.5°
Maximum altitude 18:14:16 67° 120° (ESE) 1,005 6.4 -17.5°
Enters shadow 18:18:05 23° 44° (NE) 1,808 7.5 -18.1°
Drops below altitude 10° 18:20:13 10° 39° (NE) 2,553 - -18.5°
Sets 18:22:38 0° 37° (NE) 3,447 - -18.9°
